Weather in Shangaly

Russia / Arkhangel'skaya Oblast'     61°07′58″N   43°20′33″E
temp.,
°C
wind,
m/s
gust,
m/s
humid.,
%
clouds,
%
prec.,
mm/h
press.,
hPa
HPBL,
m
20 april, tue
tue2000:000ese22700 0.0 103416
03:00−1se22760 0.0 103427
06:000se12740 0.0 103487
09:00+6sse24460 0.0 10331000
12:00+8sse35340 0.0 10321354
15:00+10se35320 0.0 10301437
18:00+8se37420 0.0 1028443
21:00+3ese276694 0.0 1028141
21 april, wed
wed2100:00+1ese210750 0.0 1027240
03:000ese3117722 0.0 1025270
06:00+1ese4146799 0.0 1023499
09:00+5ese61547100 0.0 1019905
12:00+7se71643100 0.0 10151408
15:00+4se71580100 0.6 10141208
18:00+2se61595100 0.2 1012955
21:00+2se61596100 0.8 1010781
22 april, thu
thu2200:00+2se61396100 0.7 1009988
03:00+2sse51197100 0.8 1008984
06:00+2s41092100 0.3 1009795
09:00+3ssw51084100 0.4 1010936
12:00+4ssw51081100 0.3 10121124
15:00+5ssw4980100 0.4 10141028
18:00+6ssw2780100 0.1 1015564
21:00+4s3119193 0.1 1016291
23 april, fri
fri2300:00+4s31094100 0.0 1016321
03:00+2sse299749 0.0 1017225
06:00+3sse399515 0.0 1018277
09:00+9s47712 0.0 1018570
12:00+13s585442 0.0 10181433
15:00+13sse4754100 0.0 10181101
18:00+12sse4106499 0.0 1018794
21:00+9se4128333 0.0 1018420
24 april, sat
sat2400:00+8se4138726 0.0 1018475
03:00+7se4129212 0.0 1017383
06:00+6se4109067 0.1 1017389
09:00+11se597479 0.6 1017686
12:00+13sse596094 0.0 10151287
15:00+14se585369 0.3 10141841
18:00+12ese595919 0.5 10131275
21:00+8ese5117344 0.5 1014702